contact:dominique.lefevre@mio.osupytheas.fr, maurice.libes@osupytheas.fr, didier.mallarino@osupytheas.fr
Project:EMSO http://www.emso-fr.org/EMSO-France
Depth: 2436.0 m
Title:EMSO Ligure Ouest : Data MII capteur AQUADOPP
Date,Latitude,Longitude,X_East,Y_North,Z_Up,Amplitude_X,Amplitude_Y,Amplitude_Z,Batterie,SoundSpeed,Heading,Pitch,Roll,Pressure,TIS,Speed,Direction
, degrees North, degrees East, m.s-1, m.s-1,m.s-1, 1, 1, 1, Volt, m.s-1, degree, degree, degree, dbar, degree_C, m.s-1, degree
2023-01-19T00:04:03,42.805,6.029,-0.024,-0.002,-0.019,102.0,101.0,101.0,13.4,1505.2,338.8,-0.7,1.8,2471.158,13.29,0.024,265.2
2023-01-19T00:07:03,42.805,6.029,-0.022,-0.006,0.001,103.0,101.0,100.0,13.4,1505.2,326.3,-0.7,1.8,2471.148,13.29,0.022,254.7
2023-01-19T00:10:03,42.805,6.029,-0.036,-0.013,-0.018,100.0,102.0,101.0,13.4,1505.2,336.3,-0.8,1.8,2471.11,13.29,0.038,250.1
2023-01-19T00:13:03,42.805,6.029,-0.011,-0.005,0.009,101.0,102.0,101.0,13.3,1505.2,325.0,-0.8,1.8,2471.113,13.29,0.012,245.6
2023-01-19T00:16:03,42.805,6.029,-0.009,-0.018,-0.015,101.0,101.0,100.0,13.4,1505.2,328.5,-0.7,1.8,2471.118,13.29,0.02,206.6
2023-01-19T00:19:03,42.805,6.029,-0.017,-0.011,-0.031,102.0,100.0,102.0,13.4,1505.2,337.1,-0.8,1.8,2471.074,13.29,0.02,237.1
2023-01-19T00:22:03,42.805,6.029,-0.041,0.006,-0.003,102.0,102.0,101.0,13.4,1505.2,316.5,-0.8,1.8,2471.103,13.29,0.041,278.3
2023-01-19T00:25:03,42.805,6.029,-0.031,-0.011,-0.01,101.0,99.0,104.0,13.4,1505.2,322.3,-0.8,1.8,2471.093,13.29,0.032,250.5
2023-01-19T00:28:03,42.805,6.029,-0.025,0.004,0.015,101.0,100.0,102.0,13.4,1505.2,332.6,-0.7,1.8,2471.108,13.29,0.025,279.1
2023-01-19T00:31:03,42.805,6.029,-0.025,0.0,-0.017,101.0,103.0,100.0,13.4,1505.2,328.3,-0.7,1.8,2471.08,13.29,0.025,270.0
2023-01-19T00:34:03,42.805,6.029,0.002,-0.015,-0.02,102.0,101.0,101.0,13.4,1505.2,324.6,-0.7,1.8,2471.091,13.29,0.015,172.4
2023-01-19T00:37:03,42.805,6.029,-0.021,-0.001,0.012,103.0,101.0,100.0,13.3,1505.2,330.2,-0.7,1.8,2471.112,13.29,0.021,267.3
2023-01-19T00:40:03,42.805,6.029,-0.012,0.029,0.016,100.0,100.0,101.0,13.4,1505.2,327.5,-0.8,1.8,2471.125,13.29,0.031,337.5
2023-01-19T00:43:03,42.805,6.029,-0.028,-0.012,-0.021,101.0,101.0,101.0,13.4,1505.2,324.4,-0.8,1.9,2471.136,13.29,0.03,246.8
2023-01-19T00:46:03,42.805,6.029,-0.022,-0.023,-0.038,100.0,100.0,101.0,13.4,1505.2,323.1,-0.8,1.8,2471.13,13.29,0.031,223.7
2023-01-19T00:49:03,42.805,6.029,-0.015,0.008,0.013,101.0,101.0,101.0,13.4,1505.2,321.7,-0.8,1.8,2471.119,13.29,0.017,298.1
2023-01-19T00:52:03,42.805,6.029,-0.008,-0.013,-0.025,101.0,101.0,102.0,13.4,1505.2,337.1,-0.8,1.8,2471.157,13.29,0.015,211.6
2023-01-19T00:55:03,42.805,6.029,-0.014,0.003,0.007,102.0,100.0,101.0,13.4,1505.2,320.8,-0.8,1.8,2471.136,13.29,0.014,282.1
2023-01-19T00:58:03,42.805,6.029,-0.017,-0.014,-0.015,103.0,100.0,101.0,13.3,1505.2,328.8,-0.8,1.9,2471.126,13.29,0.022,230.5
2023-01-19T01:04:03,42.805,6.029,-0.049,0.039,0.037,103.0,104.0,101.0,13.4,1505.2,327.3,-0.8,1.8,2471.138,13.29,0.062,308.5
2023-01-19T01:07:03,42.805,6.029,-0.028,0.006,-0.005,101.0,102.0,100.0,13.4,1505.2,325.4,-0.8,1.8,2471.161,13.29,0.028,282.1
2023-01-19T01:10:03,42.805,6.029,-0.041,0.0,-0.025,101.0,101.0,100.0,13.4,1505.2,332.2,-0.8,1.8,2471.125,13.29,0.041,270.0
2023-01-19T01:13:03,42.805,6.029,-0.033,-0.025,-0.015,102.0,102.0,101.0,13.4,1505.2,322.2,-0.8,1.8,2471.175,13.29,0.041,232.9
2023-01-19T01:16:03,42.805,6.029,-0.013,-0.016,-0.016,102.0,101.0,100.0,13.4,1505.2,319.8,-0.8,1.8,2471.12,13.29,0.02,219.1
2023-01-19T01:19:03,42.805,6.029,-0.029,-0.016,-0.032,101.0,100.0,100.0,13.4,1505.2,318.2,-0.8,1.8,2471.125,13.29,0.033,241.1
2023-01-19T01:22:03,42.805,6.029,-0.021,-0.012,-0.005,101.0,101.0,101.0,13.4,1505.2,322.8,-0.8,1.8,2471.127,13.29,0.024,240.3
2023-01-19T01:25:03,42.805,6.029,-0.024,-0.007,0.0,100.0,101.0,100.0,13.3,1505.2,325.3,-0.8,1.8,2471.179,13.29,0.025,253.7
2023-01-19T01:28:03,42.805,6.029,-0.018,-0.006,0.01,102.0,100.0,100.0,13.4,1505.2,322.6,-0.8,1.8,2471.115,13.29,0.018,251.6
2023-01-19T01:31:03,42.805,6.029,0.001,-0.01,-0.02,102.0,101.0,101.0,13.4,1505.2,318.3,-0.8,1.8,2471.11,13.29,0.01,174.3
2023-01-19T01:34:03,42.805,6.029,-0.002,0.001,0.002,101.0,100.0,102.0,13.4,1505.2,322.8,-0.8,1.8,2471.12,13.29,0.002,296.6
2023-01-19T01:37:03,42.805,6.029,-0.039,0.001,-0.012,102.0,101.0,100.0,13.4,1505.2,339.0,-0.7,1.8,2471.156,13.29,0.039,271.5
2023-01-19T01:40:03,42.805,6.029,-0.011,-0.006,-0.005,103.0,100.0,100.0,13.4,1505.2,329.8,-0.7,1.8,2471.147,13.29,0.012,241.4
2023-01-19T01:43:03,42.805,6.029,-0.028,-0.007,0.026,101.0,102.0,99.0,13.4,1505.2,323.8,-0.7,1.8,2471.142,13.29,0.028,256.0
2023-01-19T01:46:03,42.805,6.029,-0.004,-0.021,-0.017,100.0,101.0,101.0,13.4,1505.2,320.6,-0.8,1.8,2471.14,13.29,0.021,190.8
2023-01-19T01:49:03,42.805,6.029,0.0,0.001,0.039,101.0,101.0,101.0,13.4,1505.2,336.8,-0.8,1.8,2471.129,13.29,0.001,0.0
2023-01-19T01:52:03,42.805,6.029,-0.008,0.001,-0.001,102.0,101.0,101.0,13.4,1505.2,320.3,-0.7,1.8,2471.157,13.29,0.008,277.1
2023-01-19T01:55:03,42.805,6.029,-0.034,-0.011,-0.005,102.0,103.0,102.0,13.3,1505.2,325.9,-0.7,1.8,2471.139,13.29,0.035,252.1
2023-01-19T01:58:03,42.805,6.029,-0.022,-0.001,-0.014,101.0,102.0,104.0,13.4,1505.2,324.8,-0.8,1.8,2471.141,13.29,0.022,267.4
2023-01-19T02:04:03,42.805,6.029,-0.014,-0.011,0.011,102.0,102.0,100.0,13.4,1505.2,328.5,-0.8,1.8,2471.179,13.29,0.017,231.8
2023-01-19T02:07:03,42.805,6.029,-0.023,0.003,0.018,102.0,100.0,102.0,13.4,1505.2,331.0,-0.8,1.8,2471.203,13.29,0.023,277.4
2023-01-19T02:10:03,42.805,6.029,0.013,-0.015,0.002,100.0,101.0,101.0,13.4,1505.2,318.5,-0.8,1.8,2471.168,13.29,0.019,139.1
2023-01-19T02:13:03,42.805,6.029,-0.008,0.006,0.025,101.0,102.0,101.0,13.4,1505.2,337.1,-0.8,1.8,2471.209,13.29,0.01,306.9
2023-01-19T02:16:03,42.805,6.029,-0.022,0.003,0.0,103.0,98.0,102.0,13.4,1505.2,331.0,-0.8,1.8,2471.206,13.29,0.022,277.8
2023-01-19T02:19:03,42.805,6.029,-0.032,0.002,0.006,100.0,101.0,101.0,13.4,1505.2,326.0,-0.8,1.8,2471.18,13.29,0.032,273.6
2023-01-19T02:22:03,42.805,6.029,-0.028,0.006,-0.016,101.0,100.0,101.0,13.4,1505.2,336.6,-0.8,1.8,2471.162,13.29,0.028,282.1
2023-01-19T02:25:03,42.805,6.029,-0.016,-0.009,0.008,101.0,100.0,101.0,13.4,1505.2,331.3,-0.7,1.8,2471.202,13.29,0.018,240.6
2023-01-19T02:28:03,42.805,6.029,-0.008,-0.017,-0.005,101.0,102.0,101.0,13.4,1505.2,325.2,-0.8,1.8,2471.161,13.29,0.018,205.2
2023-01-19T02:31:03,42.805,6.029,-0.019,-0.021,-0.025,102.0,101.0,100.0,13.4,1505.2,329.4,-0.8,1.8,2471.186,13.29,0.028,222.1
2023-01-19T02:34:03,42.805,6.029,-0.037,-0.02,-0.015,102.0,100.0,101.0,13.4,1505.2,328.8,-0.8,1.8,2471.203,13.29,0.042,241.6
2023-01-19T02:37:03,42.805,6.029,-0.019,-0.027,-0.004,102.0,102.0,101.0,13.4,1505.2,333.4,-0.8,1.8,2471.175,13.29,0.033,215.1
2023-01-19T02:40:03,42.805,6.029,-0.018,0.0,-0.008,102.0,102.0,101.0,13.4,1505.2,336.5,-0.8,1.8,2471.197,13.29,0.018,270.0
2023-01-19T02:43:03,42.805,6.029,-0.036,0.0,-0.001,101.0,102.0,101.0,13.4,1505.2,328.6,-0.8,1.8,2471.199,13.29,0.036,270.0
2023-01-19T02:46:03,42.805,6.029,-0.031,0.007,0.005,101.0,109.0,102.0,13.4,1505.2,335.9,-0.8,1.8,2471.181,13.29,0.031,282.7
2023-01-19T02:49:03,42.805,6.029,-0.025,0.003,-0.025,102.0,101.0,102.0,13.4,1505.2,326.0,-0.8,1.8,2471.193,13.29,0.025,276.8
2023-01-19T02:52:03,42.805,6.029,-0.011,0.009,0.0,102.0,102.0,101.0,13.4,1505.2,328.7,-0.7,1.8,2471.186,13.29,0.014,309.3
2023-01-19T02:55:03,42.805,6.029,-0.047,-0.009,-0.019,102.0,103.0,101.0,13.4,1505.2,327.3,-0.8,1.8,2471.174,13.29,0.047,259.2
2023-01-19T02:58:03,42.805,6.029,-0.015,0.005,-0.003,102.0,105.0,103.0,13.4,1505.2,329.5,-0.8,1.8,2471.194,13.29,0.015,288.4
2023-01-19T03:04:03,42.805,6.029,-0.004,-0.008,0.0,102.0,102.0,101.0,13.4,1505.2,333.4,-0.8,1.8,2471.214,13.29,0.008,206.6
2023-01-19T03:07:03,42.805,6.029,-0.015,-0.014,-0.006,102.0,102.0,101.0,13.4,1505.2,331.3,-0.7,1.8,2471.241,13.29,0.02,227.0
2023-01-19T03:10:03,42.805,6.029,-0.033,-0.005,-0.029,103.0,102.0,102.0,13.4,1505.2,322.7,-0.7,1.8,2471.216,13.29,0.033,261.4
2023-01-19T03:13:03,42.805,6.029,-0.026,0.0,0.0,103.0,102.0,101.0,13.4,1505.2,333.4,-0.7,1.8,2471.252,13.29,0.026,270.0
2023-01-19T03:16:03,42.805,6.029,-0.029,-0.021,-0.022,102.0,102.0,101.0,13.4,1505.2,317.7,-0.7,1.9,2471.198,13.29,0.035,234.1
2023-01-19T03:19:03,42.805,6.029,-0.019,-0.012,-0.007,102.0,104.0,100.0,13.4,1505.2,316.7,-0.8,1.8,2471.208,13.29,0.022,237.7
2023-01-19T03:22:03,42.805,6.029,-0.025,-0.014,0.008,104.0,101.0,102.0,13.4,1505.2,326.5,-0.8,1.8,2471.202,13.29,0.028,240.7
2023-01-19T03:25:03,42.805,6.029,-0.007,0.0,0.0,102.0,103.0,102.0,13.4,1505.2,326.5,-0.8,1.8,2471.254,13.29,0.007,270.0
2023-01-19T03:28:03,42.805,6.029,-0.024,-0.002,-0.019,102.0,101.0,101.0,13.4,1505.2,320.1,-0.8,1.8,2471.203,13.29,0.024,265.2
2023-01-19T03:31:03,42.805,6.029,-0.035,0.001,-0.004,105.0,103.0,100.0,13.4,1505.2,328.8,-0.7,1.8,2471.213,13.29,0.035,271.6
2023-01-19T03:34:03,42.805,6.029,-0.004,-0.022,-0.018,103.0,101.0,101.0,13.4,1505.2,330.0,-0.8,1.8,2471.221,13.29,0.022,190.3
2023-01-19T03:37:03,42.805,6.029,-0.025,-0.003,0.032,101.0,102.0,100.0,13.4,1505.2,316.0,-0.8,1.8,2471.218,13.29,0.025,263.2
2023-01-19T03:40:03,42.805,6.029,-0.023,-0.012,-0.008,103.0,101.0,101.0,13.4,1505.2,336.5,-0.8,1.8,2471.243,13.29,0.025,242.4
2023-01-19T03:43:03,42.805,6.029,-0.022,-0.018,-0.01,102.0,101.0,101.0,13.4,1505.2,323.1,-0.8,1.8,2471.197,13.29,0.028,230.7
2023-01-19T03:46:03,42.805,6.029,-0.02,0.002,0.019,102.0,101.0,101.0,13.4,1505.2,334.1,-0.7,1.8,2471.238,13.29,0.02,275.7
2023-01-19T03:49:03,42.805,6.029,-0.013,0.015,-0.005,102.0,101.0,101.0,13.4,1505.2,319.0,-0.8,1.8,2471.214,13.29,0.019,319.1
2023-01-19T03:52:03,42.805,6.029,-0.04,-0.013,-0.003,101.0,102.0,101.0,13.3,1505.2,322.9,-0.8,1.8,2471.226,13.29,0.042,252.0
2023-01-19T03:55:03,42.805,6.029,-0.049,0.003,-0.007,102.0,102.0,101.0,13.4,1505.2,322.9,-0.8,1.8,2471.226,13.29,0.049,273.5
2023-01-19T03:58:03,42.805,6.029,-0.03,-0.024,-0.029,103.0,102.0,101.0,13.4,1505.2,326.3,-0.7,1.8,2471.251,13.29,0.038,231.3
2023-01-19T04:04:03,42.805,6.029,-0.01,-0.024,-0.029,101.0,102.0,102.0,13.4,1505.2,318.5,-0.8,1.8,2471.292,13.29,0.026,202.6
2023-01-19T04:07:03,42.805,6.029,-0.037,-0.03,-0.013,102.0,101.0,103.0,13.3,1505.2,316.6,-0.7,1.8,2471.283,13.29,0.047,231.0
2023-01-19T04:10:03,42.805,6.029,-0.039,-0.013,-0.006,102.0,101.0,102.0,13.4,1505.2,326.3,-0.8,1.9,2471.276,13.29,0.041,251.6
2023-01-19T04:13:03,42.805,6.029,-0.011,-0.023,-0.028,102.0,102.0,102.0,13.4,1505.2,324.2,-0.7,1.8,2471.285,13.29,0.025,205.6
2023-01-19T04:16:03,42.805,6.029,-0.043,-0.001,-0.012,103.0,102.0,100.0,13.3,1505.2,324.8,-0.7,1.8,2471.287,13.29,0.043,268.7
2023-01-19T04:19:03,42.805,6.029,-0.013,0.004,0.011,102.0,101.0,101.0,13.4,1505.2,321.5,-0.7,1.8,2471.258,13.29,0.013,287.1
2023-01-19T04:22:03,42.805,6.029,-0.023,-0.004,-0.014,103.0,102.0,100.0,13.4,1505.2,334.2,-0.8,1.8,2471.263,13.29,0.023,260.1
2023-01-19T04:25:03,42.805,6.029,-0.027,-0.011,-0.008,102.0,103.0,102.0,13.3,1505.2,323.7,-0.8,1.8,2471.217,13.29,0.029,247.8
2023-01-19T04:28:03,42.805,6.029,-0.035,-0.002,-0.015,101.0,103.0,101.0,13.4,1505.2,332.1,-0.7,1.8,2471.301,13.29,0.035,266.7
2023-01-19T04:31:03,42.805,6.029,0.006,0.0,0.003,102.0,104.0,101.0,13.4,1505.2,320.1,-0.8,1.8,2471.239,13.29,0.006,90.0
2023-01-19T04:34:03,42.805,6.029,-0.043,0.0,-0.033,103.0,102.0,101.0,13.4,1505.2,326.5,-0.7,1.8,2471.273,13.29,0.043,270.0
2023-01-19T04:37:03,42.805,6.029,-0.014,-0.012,-0.011,101.0,101.0,103.0,13.4,1505.2,328.5,-0.8,1.8,2471.235,13.29,0.018,229.4
2023-01-19T04:40:03,42.805,6.029,0.001,-0.003,-0.009,103.0,102.0,101.0,13.4,1505.2,338.2,-0.7,1.8,2471.246,13.29,0.003,161.6
2023-01-19T04:43:03,42.805,6.029,-0.018,-0.011,0.0,103.0,102.0,101.0,13.4,1505.2,323.7,-0.8,1.8,2471.227,13.29,0.021,238.6
2023-01-19T04:46:03,42.805,6.029,-0.027,-0.013,-0.028,102.0,104.0,102.0,13.4,1505.2,335.8,-0.8,1.8,2471.258,13.29,0.029,244.3
2023-01-19T04:49:03,42.805,6.029,-0.018,0.008,0.003,104.0,102.0,101.0,13.3,1505.2,320.3,-0.8,1.8,2471.259,13.29,0.019,294.0
2023-01-19T04:52:03,42.805,6.029,-0.011,-0.006,0.01,102.0,102.0,101.0,13.4,1505.2,330.8,-0.8,1.8,2471.301,13.29,0.012,241.4
2023-01-19T04:55:03,42.805,6.029,-0.017,-0.007,-0.022,103.0,104.0,102.0,13.4,1505.2,323.2,-0.8,1.8,2471.244,13.29,0.018,247.6
2023-01-19T04:58:03,42.805,6.029,-0.018,-0.007,-0.025,103.0,102.0,101.0,13.4,1505.2,331.9,-0.8,1.8,2471.27,13.29,0.019,248.8
2023-01-19T05:04:03,42.805,6.029,-0.028,-0.017,0.009,104.0,101.0,101.0,13.4,1505.2,316.6,-0.7,1.8,2471.294,13.29,0.032,238.7
2023-01-19T05:07:03,42.805,6.029,-0.031,0.004,0.014,102.0,102.0,102.0,13.4,1505.2,317.6,-0.8,1.8,2471.293,13.29,0.031,277.3
2023-01-19T05:10:03,42.805,6.029,-0.045,0.0,0.022,102.0,102.0,103.0,13.4,1505.2,328.4,-0.8,1.8,2471.311,13.29,0.045,270.0
2023-01-19T05:13:03,42.805,6.029,-0.03,0.002,0.014,102.0,102.0,101.0,13.4,1505.2,326.3,-0.8,1.8,2471.317,13.29,0.03,273.8
2023-01-19T05:16:03,42.805,6.029,-0.026,0.009,0.009,101.0,102.0,103.0,13.4,1505.2,335.9,-0.8,1.8,2471.264,13.29,0.027,289.1
2023-01-19T05:19:03,42.805,6.029,-0.018,-0.003,-0.023,102.0,101.0,101.0,13.4,1505.2,322.9,-0.7,1.8,2471.252,13.29,0.018,260.5
2023-01-19T05:22:03,42.805,6.029,-0.023,-0.005,-0.018,102.0,101.0,102.0,13.4,1505.2,325.0,-0.7,1.8,2471.232,13.29,0.023,257.7
2023-01-19T05:25:03,42.805,6.029,-0.024,0.006,0.007,102.0,102.0,101.0,13.4,1505.2,327.5,-0.8,1.8,2471.286,13.29,0.024,284.0
2023-01-19T05:28:03,42.805,6.029,-0.034,0.009,-0.005,102.0,102.0,102.0,13.4,1505.2,317.2,-0.7,1.8,2471.221,13.29,0.035,284.8
2023-01-19T05:31:03,42.805,6.029,-0.007,-0.015,-0.007,101.0,103.0,101.0,13.4,1505.2,319.0,-0.8,1.8,2471.275,13.29,0.016,205.0
2023-01-19T05:34:03,42.805,6.029,-0.01,-0.014,-0.024,101.0,101.0,101.0,13.4,1505.2,333.4,-0.7,1.8,2471.282,13.29,0.017,215.5
2023-01-19T05:37:03,42.805,6.029,-0.033,-0.007,0.009,103.0,102.0,101.0,13.4,1505.2,320.4,-0.8,1.8,2471.249,13.29,0.033,258.0
2023-01-19T05:40:03,42.805,6.029,-0.005,-0.028,-0.033,101.0,102.0,101.0,13.3,1505.2,337.5,-0.8,1.8,2471.233,13.29,0.028,190.1
2023-01-19T05:43:03,42.805,6.029,-0.015,-0.016,0.008,102.0,103.0,100.0,13.4,1505.2,315.5,-0.7,1.8,2471.263,13.29,0.021,223.1
2023-01-19T05:46:03,42.805,6.029,-0.021,0.004,0.009,103.0,103.0,100.0,13.4,1505.2,323.9,-0.8,1.8,2471.253,13.29,0.021,280.8
2023-01-19T05:49:03,42.805,6.029,-0.006,0.0,0.014,103.0,103.0,100.0,13.4,1505.2,337.3,-0.8,1.8,2471.278,13.29,0.006,270.0
2023-01-19T05:52:03,42.805,6.029,-0.022,0.011,0.0,103.0,101.0,100.0,13.4,1505.2,318.4,-0.7,1.8,2471.264,13.29,0.024,296.6
2023-01-19T05:55:03,42.805,6.029,-0.021,-0.025,-0.021,102.0,102.0,102.0,13.4,1505.2,326.7,-0.8,1.8,2471.265,13.29,0.032,220.0
2023-01-19T05:58:03,42.805,6.029,-0.027,-0.01,-0.019,101.0,102.0,101.0,13.4,1505.2,324.3,-0.8,1.8,2471.254,13.29,0.028,249.7
2023-01-19T06:04:03,42.805,6.029,-0.016,-0.002,0.006,101.0,101.0,102.0,13.4,1505.2,318.0,-0.7,1.8,2471.309,13.29,0.016,262.9
2023-01-19T06:07:03,42.805,6.029,-0.022,0.002,-0.031,101.0,102.0,102.0,13.4,1505.2,334.5,-0.8,1.8,2471.333,13.29,0.022,275.2
2023-01-19T06:10:03,42.805,6.029,-0.014,-0.021,-0.002,101.0,104.0,101.0,13.3,1505.2,331.1,-0.7,1.8,2471.313,13.29,0.025,213.7
2023-01-19T06:13:03,42.805,6.029,-0.03,-0.008,-0.035,101.0,102.0,101.0,13.3,1505.2,322.8,-0.8,1.8,2471.266,13.29,0.031,255.1
2023-01-19T06:16:03,42.805,6.029,-0.007,-0.013,-0.015,102.0,102.0,101.0,13.3,1505.2,324.0,-0.8,1.8,2471.273,13.29,0.014,208.3
2023-01-19T06:19:03,42.805,6.029,-0.019,-0.008,-0.015,102.0,101.0,101.0,13.4,1505.2,332.5,-0.8,1.8,2471.285,13.29,0.02,247.2
2023-01-19T06:22:03,42.805,6.029,-0.026,0.003,0.0,101.0,102.0,102.0,13.4,1505.2,326.5,-0.8,1.8,2471.285,13.29,0.026,276.6
2023-01-19T06:25:03,42.805,6.029,0.005,-0.001,0.018,104.0,101.0,102.0,13.3,1505.2,333.0,-0.8,1.8,2471.268,13.29,0.005,101.3
2023-01-19T06:28:03,42.805,6.029,-0.025,-0.002,0.009,101.0,102.0,101.0,13.4,1505.2,330.0,-0.8,1.8,2471.273,13.29,0.025,265.4
2023-01-19T06:31:03,42.805,6.029,-0.011,0.003,0.019,102.0,102.0,101.0,13.4,1505.2,321.4,-0.8,1.8,2471.29,13.29,0.011,285.3
2023-01-19T06:34:03,42.805,6.029,-0.016,0.0,-0.004,102.0,103.0,101.0,13.4,1505.2,319.9,-0.7,1.8,2471.266,13.29,0.016,270.0
2023-01-19T06:37:03,42.805,6.029,-0.015,-0.01,-0.013,103.0,102.0,101.0,13.4,1505.2,316.0,-0.8,1.8,2471.276,13.29,0.018,236.3
2023-01-19T06:40:03,42.805,6.029,-0.018,-0.012,-0.034,102.0,101.0,101.0,13.4,1505.2,320.7,-0.7,1.8,2471.29,13.29,0.021,236.3
2023-01-19T06:43:03,42.805,6.029,-0.028,0.006,0.011,102.0,103.0,100.0,13.4,1505.2,334.2,-0.8,1.8,2471.277,13.29,0.028,282.1
2023-01-19T06:46:03,42.805,6.029,-0.021,-0.02,-0.039,101.0,102.0,102.0,13.4,1505.2,323.4,-0.7,1.8,2471.249,13.29,0.028,226.4
2023-01-19T06:49:03,42.805,6.029,-0.014,-0.013,0.027,102.0,102.0,102.0,13.4,1505.2,326.3,-0.8,1.8,2471.248,13.29,0.019,227.1
2023-01-19T06:52:03,42.805,6.029,-0.03,-0.007,-0.005,101.0,102.0,101.0,13.4,1505.2,329.6,-0.7,1.8,2471.266,13.29,0.03,256.9
2023-01-19T06:55:03,42.805,6.029,-0.037,-0.002,0.002,102.0,101.0,101.0,13.4,1505.2,329.1,-0.8,1.8,2471.256,13.29,0.037,266.9
2023-01-19T06:58:03,42.805,6.029,-0.012,0.0,0.007,102.0,101.0,102.0,13.4,1505.2,322.6,-0.8,1.8,2471.266,13.29,0.012,270.0
2023-01-19T07:04:03,42.805,6.029,-0.052,-0.01,-0.009,103.0,102.0,101.0,13.4,1505.2,320.0,-0.8,1.8,2471.308,13.29,0.052,259.1
2023-01-19T07:07:03,42.805,6.029,-0.041,-0.003,0.001,102.0,101.0,100.0,13.4,1505.2,333.4,-0.8,1.8,2471.297,13.29,0.041,265.8
2023-01-19T07:10:03,42.805,6.029,-0.03,-0.004,-0.034,103.0,102.0,101.0,13.4,1505.2,323.2,-0.8,1.8,2471.282,13.29,0.03,262.4
2023-01-19T07:13:03,42.805,6.029,-0.02,0.002,-0.021,102.0,99.0,102.0,13.4,1505.2,325.4,-0.8,1.8,2471.271,13.29,0.02,275.7
2023-01-19T07:16:03,42.805,6.029,-0.001,-0.015,-0.006,101.0,102.0,101.0,13.3,1505.2,318.1,-0.8,1.8,2471.283,13.29,0.015,183.8
2023-01-19T07:19:03,42.805,6.029,-0.018,-0.009,-0.009,103.0,103.0,100.0,13.4,1505.2,321.4,-0.7,1.9,2471.234,13.29,0.02,243.4
2023-01-19T07:22:03,42.805,6.029,-0.014,-0.004,0.024,101.0,101.0,102.0,13.4,1505.2,323.2,-0.8,1.8,2471.281,13.29,0.014,254.1
2023-01-19T07:25:03,42.805,6.029,-0.019,0.007,0.032,104.0,103.0,101.0,13.4,1505.2,323.6,-0.8,1.8,2471.242,13.29,0.02,290.2
2023-01-19T07:28:03,42.805,6.029,-0.034,0.018,0.017,103.0,101.0,100.0,13.4,1505.2,335.2,-0.7,1.8,2471.302,13.29,0.038,297.9
2023-01-19T07:31:03,42.805,6.029,-0.009,-0.003,0.009,101.0,103.0,102.0,13.4,1505.2,325.4,-0.8,1.8,2471.289,13.29,0.009,251.6
2023-01-19T07:34:03,42.805,6.029,-0.023,0.016,0.018,102.0,103.0,101.0,13.4,1505.2,320.5,-0.7,1.8,2471.255,13.29,0.028,304.8
2023-01-19T07:37:03,42.805,6.029,-0.005,-0.014,0.023,102.0,101.0,101.0,13.4,1505.2,324.3,-0.8,1.8,2471.261,13.29,0.014,199.6
2023-01-19T07:40:03,42.805,6.029,-0.011,-0.006,0.014,100.0,104.0,101.0,13.4,1505.2,321.1,-0.7,1.8,2471.243,13.29,0.012,241.4
2023-01-19T07:43:03,42.805,6.029,-0.015,-0.01,-0.013,102.0,101.0,101.0,13.4,1505.2,322.0,-0.8,1.9,2471.277,13.29,0.018,236.3
2023-01-19T07:46:03,42.805,6.029,-0.008,-0.023,0.005,103.0,101.0,101.0,13.4,1505.2,333.0,-0.7,1.8,2471.238,13.29,0.024,199.2
2023-01-19T07:49:03,42.805,6.029,-0.011,-0.008,-0.006,102.0,100.0,101.0,13.4,1505.2,334.5,-0.8,1.9,2471.242,13.29,0.013,234.0
2023-01-19T07:52:03,42.805,6.029,-0.005,0.001,0.001,102.0,102.0,101.0,13.4,1505.2,321.8,-0.7,1.8,2471.227,13.29,0.005,281.3
2023-01-19T07:55:03,42.805,6.029,-0.01,0.01,0.012,101.0,101.0,101.0,13.4,1505.2,328.3,-0.8,1.8,2471.269,13.29,0.014,315.0
2023-01-19T07:58:03,42.805,6.029,0.007,-0.007,0.005,102.0,100.0,101.0,13.4,1505.2,320.7,-0.7,1.8,2471.237,13.29,0.009,135.0
2023-01-19T08:04:03,42.805,6.029,-0.015,-0.008,-0.022,103.0,101.0,102.0,13.4,1505.2,331.9,-0.8,1.8,2471.281,13.29,0.017,241.9
2023-01-19T08:07:03,42.805,6.029,-0.034,0.015,-0.004,103.0,102.0,102.0,13.4,1505.2,325.1,-0.7,1.8,2471.296,13.29,0.037,293.8
2023-01-19T08:10:03,42.805,6.029,-0.028,-0.024,0.002,102.0,103.0,101.0,13.4,1505.2,329.1,-0.8,1.8,2471.288,13.29,0.036,229.4
2023-01-19T08:13:03,42.805,6.029,-0.019,0.007,0.015,102.0,103.0,102.0,13.3,1505.2,325.8,-0.8,1.8,2471.26,13.29,0.02,290.2
2023-01-19T08:16:03,42.805,6.029,-0.019,-0.02,-0.022,102.0,101.0,101.0,13.4,1505.2,330.5,-0.7,1.8,2471.29,13.29,0.027,223.5
2023-01-19T08:19:03,42.805,6.029,-0.018,-0.006,0.002,103.0,102.0,103.0,13.4,1505.2,338.3,-0.8,1.8,2471.216,13.29,0.018,251.6
2023-01-19T08:22:03,42.805,6.029,-0.007,-0.02,-0.036,104.0,102.0,100.0,13.4,1505.2,334.1,-0.8,1.9,2471.243,13.29,0.021,199.3
2023-01-19T08:25:03,42.805,6.029,-0.024,-0.001,0.0,102.0,104.0,101.0,13.4,1505.2,321.5,-0.7,1.8,2471.245,13.29,0.024,267.6
2023-01-19T08:28:03,42.805,6.029,0.001,-0.013,-0.004,103.0,103.0,101.0,13.4,1505.2,329.0,-0.8,1.8,2471.24,13.29,0.013,175.6
2023-01-19T08:31:03,42.805,6.029,-0.027,-0.017,-0.007,102.0,103.0,101.0,13.4,1505.2,330.1,-0.7,1.8,2471.247,13.29,0.031,237.8
2023-01-19T08:34:03,42.805,6.029,0.009,-0.033,-0.015,102.0,102.0,101.0,13.4,1505.2,324.3,-0.8,1.9,2471.196,13.29,0.034,164.7
2023-01-19T08:37:03,42.805,6.029,-0.029,-0.012,-0.013,100.0,102.0,101.0,13.3,1505.2,327.9,-0.7,1.8,2471.21,13.29,0.031,247.5
2023-01-19T08:40:03,42.805,6.029,-0.023,0.0,0.005,101.0,102.0,100.0,13.4,1505.2,329.8,-0.7,1.9,2471.243,13.29,0.023,270.0
2023-01-19T08:43:03,42.805,6.029,0.0,-0.017,-0.005,102.0,101.0,102.0,13.4,1505.2,331.0,-0.8,1.8,2471.217,13.29,0.017,180.0
2023-01-19T08:46:03,42.805,6.029,-0.008,0.002,0.012,101.0,102.0,101.0,13.4,1505.2,329.4,-0.8,1.8,2471.239,13.29,0.008,284.0
2023-01-19T08:49:03,42.805,6.029,-0.006,-0.017,-0.032,102.0,102.0,101.0,13.4,1505.2,316.5,-0.8,1.8,2471.215,13.29,0.018,199.4
2023-01-19T08:52:03,42.805,6.029,-0.009,-0.009,-0.004,101.0,101.0,102.0,13.3,1505.2,323.8,-0.7,1.8,2471.226,13.29,0.012,225.0
2023-01-19T08:55:03,42.805,6.029,-0.026,-0.013,-0.007,102.0,101.0,101.0,13.3,1505.2,323.7,-0.8,1.9,2471.23,13.29,0.029,243.4
2023-01-19T08:58:03,42.805,6.029,-0.005,-0.01,-0.019,103.0,102.0,103.0,13.4,1505.2,332.2,-0.8,1.8,2471.217,13.29,0.011,206.6
2023-01-19T09:04:03,42.805,6.029,-0.009,-0.023,-0.008,102.0,102.0,102.0,13.3,1505.2,325.0,-0.8,1.8,2471.262,13.29,0.024,201.4
2023-01-19T09:07:03,42.805,6.029,-0.022,-0.009,-0.008,102.0,101.0,102.0,13.3,1505.2,329.4,-0.8,1.8,2471.249,13.29,0.023,247.8
2023-01-19T09:10:03,42.805,6.029,-0.008,0.002,-0.026,102.0,100.0,101.0,13.4,1505.2,331.4,-0.8,1.8,2471.235,13.29,0.008,284.0
2023-01-19T09:13:03,42.805,6.029,-0.027,-0.017,-0.023,103.0,99.0,101.0,13.3,1505.2,332.6,-0.8,1.8,2471.254,13.29,0.031,237.8
2023-01-19T09:16:03,42.805,6.029,-0.018,0.001,0.019,101.0,101.0,101.0,13.4,1505.2,319.5,-0.7,1.8,2471.208,13.29,0.018,273.2
2023-01-19T09:19:03,42.805,6.029,-0.034,-0.025,-0.032,101.0,101.0,100.0,13.4,1505.2,316.0,-0.8,1.8,2471.229,13.29,0.042,233.7
2023-01-19T09:22:03,42.805,6.029,-0.034,-0.013,-0.019,102.0,101.0,101.0,13.4,1505.2,322.3,-0.8,1.8,2471.228,13.29,0.036,249.1
2023-01-19T09:25:03,42.805,6.029,-0.015,-0.011,-0.02,102.0,102.0,101.0,13.4,1505.2,318.1,-0.7,1.8,2471.258,13.29,0.018,233.7
2023-01-19T09:28:03,42.805,6.029,-0.001,-0.006,0.016,101.0,102.0,102.0,13.3,1505.2,329.3,-0.8,1.8,2471.236,13.29,0.006,189.5
2023-01-19T09:31:03,42.805,6.029,-0.019,-0.001,0.011,102.0,101.0,102.0,13.4,1505.2,316.1,-0.7,1.8,2471.222,13.29,0.019,267.0
2023-01-19T09:34:03,42.805,6.029,0.006,-0.019,-0.001,103.0,102.0,101.0,13.4,1505.2,330.5,-0.7,1.8,2471.168,13.29,0.019,162.5
2023-01-19T09:37:03,42.805,6.029,-0.004,-0.03,-0.012,102.0,101.0,101.0,13.4,1505.2,333.4,-0.8,1.9,2471.183,13.3,0.03,187.6
2023-01-19T09:40:03,42.805,6.029,-0.016,-0.003,0.0,102.0,101.0,104.0,13.4,1505.2,328.2,-0.7,1.8,2471.212,13.3,0.016,259.4
2023-01-19T09:43:03,42.805,6.029,-0.028,-0.011,-0.007,101.0,102.0,101.0,13.4,1505.2,320.7,-0.8,1.8,2471.212,13.3,0.03,248.6
2023-01-19T09:46:03,42.805,6.029,-0.017,-0.018,-0.001,102.0,102.0,101.0,13.4,1505.2,327.3,-0.7,1.8,2471.215,13.3,0.024,223.4
2023-01-19T09:49:03,42.805,6.029,-0.025,0.001,-0.007,103.0,104.0,102.0,13.3,1505.2,318.6,-0.8,1.8,2471.209,13.3,0.025,272.3
2023-01-19T09:52:03,42.805,6.029,-0.02,-0.015,-0.01,104.0,103.0,103.0,13.3,1505.2,318.1,-0.8,1.8,2471.212,13.3,0.025,233.1